Date String (YYYY-MM-DD hh:mm:ss) UTC,Instrument flags,absolute air pressure of the measurement (hPa),sample flow rate (lpm),inlet stack bypass flow (lpm),air temperature of the measurement (°C),ambient temperature measured by the external sensor (°C),aerosol sample conditioner tube jacket temperature (°C),OPC LED temperature (°C),internal box temperature (°C),relative humidity of the measurement (%),span deviation,mass concentration of particles derived from Lorenz-Mie calculation of OPC scattering (μg/m³),mass concentration of particles derived from Lorenz-Mie calculation of OPC scattering (μg/m³),mass concentration of particles derived from Lorenz-Mie calculation of OPC scattering (μg/m³)
DateTimeUTC,F1_M11,P_M11,Q1_M11,Q2_M11,T1_M11,T2_M11,T3_M11,T4_M11,T5_M11,U1_M11,ZSPAN_M11,X0_M11,X2_M11,X1_M11
2024-03-25 05:00:00,SystemResetWarning,0815.6,5.00,000.00,019.1,018.3,000.0,027.7,020.9,16.8,0000.0,0007.10,0003.92,0003.76
2024-03-25 05:01:00,SystemResetWarning,0815.6,5.00,000.00,019.1,018.2,000.0,027.7,020.8,16.8,0000.0,0007.25,0003.93,0003.77
2024-03-25 05:02:00,SystemResetWarning,0815.6,5.00,000.00,019.0,018.1,000.0,027.7,020.8,16.8,0000.0,0007.27,0003.93,0003.77
2024-03-25 05:03:00,SystemResetWarning,0815.7,5.00,000.00,019.0,018.0,000.0,027.7,020.7,16.9,0000.0,0007.26,0003.93,0003.78
2024-03-25 05:04:00,SystemResetWarning,0815.6,5.00,000.00,019.0,018.0,000.0,027.7,020.7,16.9,0000.0,0006.55,0003.94,0003.79
2024-03-25 05:05:00,SystemResetWarning,0815.7,5.00,000.00,018.9,017.9,000.0,027.6,020.7,16.9,0000.0,0006.74,0003.95,0003.80
2024-03-25 05:06:00,SystemResetWarning,0815.7,5.00,000.00,018.9,017.9,000.0,027.6,020.6,16.9,0000.0,0006.70,0003.96,0003.81
2024-03-25 05:07:00,SystemResetWarning,0815.7,5.00,000.00,018.9,017.8,000.0,027.6,020.6,16.9,0000.0,0006.70,0003.98,0003.82
2024-03-25 05:08:00,SystemResetWarning,0815.7,5.00,000.00,018.8,017.8,000.0,027.6,020.6,16.9,0000.0,0006.72,0003.98,0003.82
2024-03-25 05:09:00,SystemResetWarning,0815.8,5.02,000.00,018.9,018.3,000.0,027.7,020.9,16.9,0000.0,0006.70,0003.99,0003.82
2024-03-25 05:10:00,SystemResetWarning,0815.9,5.00,000.00,019.1,019.2,000.0,027.8,021.4,16.7,0000.0,0006.54,0003.97,0003.82
2024-03-25 05:11:00,SystemResetWarning,0815.9,5.00,000.00,019.3,019.3,000.0,027.8,021.5,16.5,0000.0,0006.00,0003.97,0003.83
2024-03-25 05:12:00,SystemResetWarning,0815.8,4.99,000.00,019.3,019.2,000.0,027.7,021.3,16.5,0000.0,0005.90,0003.98,0003.84
2024-03-25 05:13:00,SystemResetWarning,0815.8,4.99,000.00,019.3,019.0,000.0,027.7,021.2,16.5,0000.0,0005.95,0003.99,0003.85
2024-03-25 05:14:00,SystemResetWarning,0815.8,4.99,000.00,019.2,018.8,000.0,027.7,021.1,16.5,0000.0,0005.97,0004.00,0003.86
2024-03-25 05:15:00,SystemResetWarning,0815.8,5.00,000.00,019.2,018.6,000.0,027.7,021.0,16.5,0000.0,0006.06,0004.03,0003.87
2024-03-25 05:16:00,SystemResetWarning,0815.8,5.00,000.00,019.2,018.5,000.0,027.7,021.0,16.6,0000.0,0005.82,0004.05,0003.88
2024-03-25 05:17:00,SystemResetWarning,0815.8,5.01,000.00,019.2,018.4,000.0,027.7,020.9,16.6,0000.0,0005.83,0004.06,0003.89
2024-03-25 05:18:00,SystemResetWarning,0815.8,5.00,000.00,019.1,018.3,000.0,027.7,020.9,16.6,0000.0,0005.82,0004.05,0003.89
2024-03-25 05:19:00,SystemResetWarning,0815.8,5.00,000.00,019.1,018.2,000.0,027.7,020.8,16.6,0000.0,0005.86,0004.06,0003.90
2024-03-25 05:20:00,SystemResetWarning,0815.8,5.00,000.00,019.1,018.1,000.0,027.7,020.8,16.7,0000.0,0005.83,0004.08,0003.91
2024-03-25 05:21:00,SystemResetWarning,0815.8,5.01,000.00,019.0,018.1,000.0,027.7,020.8,16.7,0000.0,0005.93,0004.11,0003.92
2024-03-25 05:22:00,SystemResetWarning,0815.8,5.00,000.00,019.0,018.0,000.0,027.7,020.7,16.7,0000.0,0005.76,0004.11,0003.93
2024-03-25 05:23:00,SystemResetWarning,0815.8,4.99,000.00,019.0,018.0,000.0,027.7,020.7,16.8,0000.0,0005.83,0004.13,0003.93
2024-03-25 05:24:00,SystemResetWarning,0815.8,5.00,000.00,018.9,017.9,000.0,027.7,020.7,16.8,0000.0,0005.88,0004.14,0003.94
2024-03-25 05:25:00,SystemResetWarning,0815.8,5.00,000.00,018.9,017.9,000.0,027.7,020.6,16.8,0000.0,0005.92,0004.15,0003.94
2024-03-25 05:26:00,SystemResetWarning,0815.8,5.01,000.00,018.9,017.8,000.0,027.6,020.6,16.8,0000.0,0006.00,0004.17,0003.95
2024-03-25 05:27:00,SystemResetWarning,0815.8,5.00,000.00,018.9,017.8,000.0,027.6,020.6,16.9,0000.0,0006.10,0004.18,0003.95
2024-03-25 05:28:00,SystemResetWarning,0815.8,5.00,000.00,018.8,017.8,000.0,027.6,020.6,16.9,0000.0,0006.33,0004.20,0003.97
2024-03-25 05:29:00,SystemResetWarning,0815.7,5.00,000.00,018.8,017.8,000.0,027.6,020.5,16.9,0000.0,0006.32,0004.19,0003.98
2024-03-25 05:30:00,SystemResetWarning,0815.7,4.99,000.00,018.8,017.7,000.0,027.6,020.5,16.9,0000.0,0006.29,0004.20,0003.99
2024-03-25 05:31:00,SystemResetWarning,0815.7,4.99,000.00,018.8,017.7,000.0,027.6,020.5,16.9,0000.0,0006.35,0004.20,0004.01
2024-03-25 05:32:00,SystemResetWarning,0815.8,4.99,000.00,018.7,017.7,000.0,027.5,020.5,16.9,0000.0,0006.47,0004.20,0004.01
2024-03-25 05:33:00,SystemResetWarning,0815.8,5.00,000.00,018.7,017.7,000.0,027.5,020.4,17.0,0000.0,0006.74,0004.22,0004.02
2024-03-25 05:34:00,SystemResetWarning,0815.8,5.01,000.00,018.7,017.7,000.0,027.5,020.4,17.0,0000.0,0006.71,0004.22,0004.03
2024-03-25 05:35:00,SystemResetWarning,0815.8,5.00,000.00,018.7,018.0,000.0,027.6,020.6,16.9,0000.0,0006.59,0004.21,0004.04
2024-03-25 05:36:00,SystemResetWarning,0815.8,5.00,000.00,018.9,018.9,000.0,027.7,021.1,16.8,0000.0,0006.62,0004.22,0004.04
2024-03-25 05:37:00,SystemResetWarning,0815.8,4.98,000.00,019.1,019.1,000.0,027.6,021.3,16.6,0000.0,0006.49,0004.18,0004.04
2024-03-25 05:38:00,SystemResetWarning,0815.8,4.99,000.00,019.1,019.0,000.0,027.6,021.2,16.5,0000.0,0006.63,0004.16,0004.04
2024-03-25 05:39:00,SystemResetWarning,0815.8,5.01,000.00,019.1,018.8,000.0,027.6,021.0,16.5,0000.0,0006.98,0004.16,0004.03
2024-03-25 05:40:00,SystemResetWarning,0815.8,5.00,000.00,019.1,018.6,000.0,027.6,021.0,16.5,0000.0,0007.06,0004.16,0004.02
2024-03-25 05:41:00,SystemResetWarning,0815.8,5.00,000.00,019.0,018.5,000.0,027.6,020.9,16.5,0000.0,0006.98,0004.14,0004.01
2024-03-25 05:42:00,SystemResetWarning,0815.8,5.00,000.00,019.0,018.4,000.0,027.6,020.8,16.5,0000.0,0006.79,0004.11,0003.99
2024-03-25 05:43:00,SystemResetWarning,0815.7,5.00,000.00,019.0,018.3,000.0,027.6,020.8,16.5,0000.0,0006.65,0004.11,0003.98
2024-03-25 05:44:00,SystemResetWarning,0815.7,5.00,000.00,019.0,018.2,000.0,027.6,020.7,16.6,0000.0,0006.35,0004.09,0003.96
2024-03-25 05:45:00,SystemResetWarning,0815.7,4.99,000.00,018.9,018.1,000.0,027.6,020.7,16.6,0000.0,0006.32,0004.08,0003.95
2024-03-25 05:46:00,SystemResetWarning,0815.7,5.00,000.00,018.9,018.0,000.0,027.6,020.7,16.6,0000.0,0006.27,0004.05,0003.93
2024-03-25 05:47:00,SystemResetWarning,0815.6,5.00,000.00,018.9,017.9,000.0,027.6,020.6,16.6,0000.0,0006.25,0004.04,0003.92
2024-03-25 05:48:00,SystemResetWarning,0815.6,5.00,000.00,018.9,017.9,000.0,027.6,020.6,16.6,0000.0,0006.33,0004.04,0003.91
2024-03-25 05:49:00,SystemResetWarning,0815.6,5.00,000.00,018.8,017.8,000.0,027.6,020.6,16.7,0000.0,0006.05,0004.03,0003.89
2024-03-25 05:50:00,SystemResetWarning,0815.6,5.00,000.00,018.8,017.8,000.0,027.5,020.6,16.7,0000.0,0005.55,0004.02,0003.89
2024-03-25 05:51:00,SystemResetWarning,0815.6,5.01,000.00,018.8,017.8,000.0,027.5,020.6,16.7,0000.0,0005.34,0004.01,0003.88
2024-03-25 05:52:00,SystemResetWarning,0815.6,5.01,000.00,018.8,017.8,000.0,027.5,020.5,16.7,0000.0,0005.43,0004.03,0003.88
2024-03-25 05:53:00,SystemResetWarning,0815.7,5.01,000.00,018.7,017.7,000.0,027.5,020.5,16.7,0000.0,0005.51,0004.05,0003.89
2024-03-25 05:54:00,SystemResetWarning,0815.7,5.00,000.00,018.7,017.7,000.0,027.5,020.5,16.7,0000.0,0005.57,0004.06,0003.90
2024-03-25 05:55:00,SystemResetWarning,0815.7,4.99,000.00,018.7,017.7,000.0,027.5,020.5,16.8,0000.0,0005.67,0004.07,0003.91
2024-03-25 05:56:00,SystemResetWarning,0815.7,5.00,000.00,018.7,017.7,000.0,027.5,020.4,16.8,0000.0,0005.73,0004.07,0003.91
2024-03-25 05:57:00,SystemResetWarning,0815.7,5.00,000.00,018.6,017.7,000.0,027.4,020.4,16.8,0000.0,0006.70,0004.11,0003.92
2024-03-25 05:58:00,SystemResetWarning,0815.7,5.00,000.00,018.6,017.8,000.0,027.5,020.4,16.8,0000.0,0006.65,0004.11,0003.92
2024-03-25 05:59:00,SystemResetWarning,0815.8,5.01,000.00,018.7,018.5,000.0,027.6,020.8,16.7,0000.0,0006.57,0004.10,0003.93
